This demonstration page uses our WeatherBlox Daily Observations layout. Learn more.

Left ArrowRight Arrow

39.08367, -84.50855

Hourly Observations for March 21, 2015

Temp ( °F °C ) Dew Point ( °F °C ) Humidity (%) Winds ( mph kmh ) Pressure ( in mb ) Visibility ( mi km ) Precip ( " mm )
12:53 am 00:53 Cloudy 45 7.2 41 5 86 86 N N/A 30.14 1021 9 14.48406 N/A
1:53 am 01:53 Cloudy 44 6.7 41 5 89 89 S 6 9 30.14 1021 9 14.48406 N/A
2:53 am 02:53 Cloudy 46 7.8 40 4.4 79 79 SW 5 7 30.15 1021 9 14.48406 N/A
3:53 am 03:53 Cloudy 46 7.8 39 3.9 77 77 SW 5 7 30.14 1021 10 16.0934 N/A
4:53 am 04:53 Cloudy 46 7.8 39 3.9 77 77 WSW 8 13 30.13 1020 10 16.0934 N/A
5:53 am 05:53 Cloudy 45 7.2 38 3.3 77 77 SSW 6 9 30.13 1020 10 16.0934 N/A
6:23 am 06:23 Mostly Cloudy 43 6.1 38 3.3 82 82 SSW 8 13 30.12 1020 10 16.0934 N/A
6:36 am 06:36 Partly Cloudy 43 6 37 3 81 81 SSW 8 13 30.12 1020 10 16.0934 N/A
6:53 am 06:53 Clear 43 6.1 38 3.3 82 82 S 8 13 30.11 1020 10 16.0934 N/A
7:53 am 07:53 Cloudy 43 6.1 39 3.9 86 86 SSW 9 15 30.14 1021 7 11.26538 N/A
8:53 am 08:53 Cloudy 45 7.2 40 4.4 83 83 SSW 10 17 30.15 1021 8 12.87472 N/A
9:53 am 09:53 Cloudy 47 8.3 40 4.4 77 77 SSW 10 17 30.15 1021 8 12.87472 N/A
10:50 am 10:50 Partly Cloudy 52 11 41 5 67 67 SSW 13 20 30.15 1021 10 16.0934 N/A
10:53 am 10:53 Partly Cloudy 51 10.6 42 5.6 71 71 SSW 12 19 30.15 1021 10 16.0934 N/A
11:53 am 11:53 Sunny 55 12.8 42 5.6 62 62 SSW 12 19 30.14 1021 10 16.0934 N/A
12:53 pm 12:53 Sunny 59 15 41 5 51 51 SSW 14 22 30.12 1020 10 16.0934 N/A
1:53 pm 13:53 Sunny 61 16.1 42 5.6 50 50 W 9 15 30.1 1019 10 16.0934 N/A
2:53 pm 14:53 Sunny 64 17.8 42 5.6 45 45 W 15 24 30.07 1018 10 16.0934 N/A
3:53 pm 15:53 Sunny 66 18.9 42 5.6 42 42 WSW 14 22 30.04 1017 10 16.0934 N/A
4:53 pm 16:53 Sunny 66 18.9 41 5 40 40 NW 13 20 30.03 1017 10 16.0934 N/A
5:53 pm 17:53 Sunny 66 18.9 38 3.3 36 36 WNW 13 20 30.03 1017 10 16.0934 N/A
6:53 pm 18:53 Sunny 63 17.2 38 3.3 40 40 NNW 12 19 30.05 1018 10 16.0934 N/A
7:53 pm 19:53 Clear 60 15.6 36 2.2 41 41 NNW 12 19 30.09 1019 10 16.0934 N/A
8:53 pm 20:53 Clear 56 13.3 41 5 57 57 NNE 9 15 30.11 1020 10 16.0934 N/A
9:53 pm 21:53 Clear 51 10.6 39 3.9 64 64 NNE 9 15 30.15 1021 10 16.0934 N/A
10:53 pm 22:53 Clear 49 9.4 38 3.3 66 66 N 7 11 30.16 1021 9 14.48406 N/A
11:53 pm 23:53 Clear 48 8.9 37 2.8 66 66 N 5 7 30.16 1021 10 16.0934 N/A

Powered by AerisWeather